Russell, KS

1:09 PM CST on February 12, 2016 (GMT -0600)
Russell Municipal

Weather History for KRSL - October, 2012

Change the Weather History Date:

Sunday, October 7, 2012

  Actual Average Record
Temperature  
Mean Temperature 37 °F -  
Max Temperature 54 °F 73 °F 94 °F (1949)
Min Temperature 23 °F 45 °F 22 °F (1952)
Degree Days  
Heating Degree Days 28    
Moisture  
Dew Point 29 °F    
Average Humidity 73    
Maximum Humidity 96    
Minimum Humidity 48    
Precipitation  
Precipitation 0.00 in - - ()
Sea Level Pressure  
Sea Level Pressure 30.28 in    
Wind  
Wind Speed 7 mph (SW)    
Max Wind Speed 17 mph    
Max Gust Speed 24 mph    
Visibility 9 miles    
Events      
Averages and records for this station are not official NWS values.
T = Trace of Precipitation, MM = Missing Value Source: NWS Daily Summary

Daily Weather History Graph

Daily Weather History Graph

Search for Another Location

Airport or City:

Trip Planner

Search our weather history database for the weather conditions in past years. The results will help you decide how hot, cold, wet, or windy it might be!

Date:

Astronomy

Oct. 07, 2012 Rise Set
Actual Time 7:37 AM CDT 7:07 PM CDT
Civil Twilight 7:10 AM CDT 7:34 PM CDT
Nautical Twilight 6:39 AM CDT 8:05 PM CDT
Astronomical Twilight 6:08 AM CDT 8:36 PM CDT
Moon No Moon Rise 2:13 PM CDT (10/7)
Length of Visible Light 12h 23m
Length of Day
11h 30m
Waning Gibbous, 56% of the Moon is Illuminated
Oct 7
Waning Gibbous
Oct 8
Last Quarter
Oct 15
New
Oct 21
First Quarter
Oct 29
Full

Hourly Weather History & Observations

Time (CDT) Temp. Windchill Dew Point Humidity Pressure Visibility Wind Dir Wind Speed Gust Speed Precip Events Conditions
12:53 AM 30.0 °F 24.1 °F 28.0 °F 92% 30.39 in 10.0 mi NNW 5.8 mph - N/A   Clear
1:53 AM 30.0 °F - 28.0 °F 92% 30.40 in 10.0 mi Calm Calm - N/A   Clear
2:53 AM 26.1 °F 18.4 °F 24.1 °F 92% 30.40 in 9.0 mi NW 6.9 mph - N/A   Clear
3:53 AM 26.1 °F 16.8 °F 24.1 °F 92% 30.39 in 9.0 mi WSW 9.2 mph - N/A   Clear
4:53 AM 26.1 °F 19.4 °F 24.1 °F 92% 30.37 in 7.0 mi West 5.8 mph - N/A   Clear
5:53 AM 24.1 °F 17.0 °F 21.9 °F 91% 30.37 in 9.0 mi WSW 5.8 mph - N/A   Clear
6:53 AM 23.0 °F 15.8 °F 21.9 °F 96% 30.38 in 8.0 mi SSW 5.8 mph - N/A   Clear
7:53 AM 25.0 °F - 23.0 °F 92% 30.37 in 5.0 mi Calm Calm - N/A   Clear
8:53 AM 30.9 °F - 28.9 °F 92% 30.36 in 7.0 mi Calm Calm - N/A   Clear
9:53 AM 37.0 °F 31.0 °F 35.1 °F 93% 30.36 in 9.0 mi SW 8.1 mph - N/A   Clear
10:53 AM 41.0 °F 35.2 °F 34.0 °F 76% 30.35 in 10.0 mi WSW 9.2 mph - N/A   Clear
11:53 AM 45.0 °F 39.7 °F 33.1 °F 63% 30.33 in 10.0 mi SW 10.4 mph - N/A   Scattered Clouds
12:42 PM 46.4 °F 42.9 °F 32.0 °F 57% 30.26 in 10.0 mi SSW 6.9 mph - N/A   Mostly Cloudy
12:53 PM 48.0 °F - 30.9 °F 52% 30.30 in 10.0 mi SW 12.7 mph - N/A   Mostly Cloudy
1:53 PM 48.9 °F - 30.9 °F 50% 30.26 in 10.0 mi WSW 10.4 mph - N/A   Overcast
2:53 PM 51.1 °F - 32.0 °F 48% 30.22 in 10.0 mi SSW 12.7 mph 18.4 mph N/A   Overcast
3:53 PM 51.1 °F - 32.0 °F 48% 30.20 in 10.0 mi SSW 15.0 mph - N/A   Overcast
4:53 PM 51.1 °F - 32.0 °F 48% 30.18 in 10.0 mi SSW 17.3 mph 24.2 mph N/A   Mostly Cloudy
5:53 PM 50.0 °F - 32.0 °F 50% 30.16 in 10.0 mi SW 13.8 mph - N/A   Overcast
6:53 PM 50.0 °F - 33.1 °F 52% 30.15 in 10.0 mi SW 13.8 mph - N/A   Overcast
7:53 PM 43.0 °F 38.8 °F 32.0 °F 65% 30.17 in 10.0 mi SW 6.9 mph - N/A   Clear
8:53 PM 39.0 °F 33.4 °F 30.9 °F 73% 30.16 in 10.0 mi South 8.1 mph - N/A   Clear
9:53 PM 37.9 °F 30.9 °F 30.9 °F 76% 30.14 in 10.0 mi South 10.4 mph - N/A   Clear
10:53 PM 37.0 °F 29.8 °F 30.0 °F 76% 30.15 in 10.0 mi SSW 10.4 mph - N/A   Clear
11:53 PM 39.0 °F 32.3 °F 30.0 °F 70% 30.13 in 10.0 mi SSW 10.4 mph - N/A   Clear